Home > Weather > Lörrach > Past weeks

Flag for Germany Weather for the Past 2 Weeks in Lörrach, Baden-Württemberg, Germany

Now
39 °F

Passing clouds.


Feels Like: 39 °F
Forecast: 30 / 43 °F
Wind: 2 mph from North

Location: Bale-Mulhouse

Current Time: Feb 11, 2016 at 10:28:38 AM

Latest Report: Feb 11, 2016 at 10:00 AM


Visibility: N/A

Pressure: 29.80 "Hg

Humidity: 75%

Dew point: 32 °F

Location of LörrachLocation

Historic Weather in Lörrach — Graph

°F

Lörrach Temperature Yesterday

Maximum temperature yesterday: 43 °F (at 1:00 PM)
Minimum temperature yesterday: 36 °F (at 3:30 AM)
Average temperature yesterday: 39 °F

High & Low Weather Summary for the Past Weeks

 TemperatureHumidityPressure
High57 °F (Feb 1, 4:00 AM)100% (Jan 28, 5:30 PM)30.51 "Hg (Jan 28, 5:30 PM)
Low30 °F (Jan 30, 6:00 AM)51% (Feb 6, 3:30 PM)29.27 "Hg (Feb 9, 4:00 PM)
Average45 °F82%30.07 "Hg
* Reported Jan 27 9:00 AM — Feb 11 9:00 AM, Lörrach, Weather by CustomWeather, © 2016

Note: Actual official high and low records may vary slightly from our data, if they occured in-between our weather recording intervals... More about our weather records

Advertising

Lörrach Weather History for the Previous 24 Hours

 ConditionsComfort  
Time TempWeatherWind HumidityBarometerVisibility
9:00 AM
Thu, Feb 11
34 °FSunny.2 mph93%29.80 "Hg10 mi
8:30 AM34 °FSunny.3 mph93%29.80 "Hg10 mi
8:00 AM34 °FSunny.No wind87%29.80 "Hg10 mi
7:30 AM34 °FClear.2 mph87%29.80 "Hg10 mi
7:00 AM36 °FClear.2 mph81%29.80 "Hg10 mi
6:30 AM34 °FClear.1 mph87%29.80 "Hg10 mi
6:00 AM36 °FPassing clouds.3 mph87%29.80 "HgN/A
5:30 AM34 °FClear.2 mph87%29.80 "Hg10 mi
5:00 AM34 °FClear.No wind87%29.80 "Hg10 mi
4:30 AM32 °FClear.1 mph93%29.80 "Hg10 mi
4:00 AM32 °FClear.No wind93%29.80 "Hg10 mi
3:00 AM32 °FClear.2 mph87%29.77 "Hg10 mi
2:30 AM32 °FClear.1 mph87%29.77 "Hg10 mi
2:00 AM32 °FClear.3 mph87%29.77 "Hg10 mi
1:30 AM34 °FPassing clouds.3 mph81%29.77 "HgN/A
12:30 AM36 °FClear.8 mph81%29.74 "Hg10 mi
12:00 AM36 °FClear.8 mph81%29.74 "Hg10 mi
11:30 PM
Wed, Feb 10
37 °FClear.7 mph75%29.74 "Hg10 mi
10:30 PM37 °FPassing clouds.8 mph70%29.74 "HgN/A
10:00 PM37 °FPassing clouds.5 mph70%29.74 "HgN/A
9:30 PM37 °FClear.3 mph70%29.71 "Hg10 mi
9:00 PM37 °FPassing clouds.8 mph70%29.71 "HgN/A
8:30 PM37 °FPassing clouds.6 mph70%29.71 "HgN/A
8:00 PM37 °FPassing clouds.6 mph70%29.68 "HgN/A
7:30 PM39 °FClear.9 mph65%29.68 "Hg10 mi
7:00 PM41 °FPassing clouds.9 mph61%29.68 "HgN/A
6:30 PM41 °FPassing clouds.9 mph66%29.65 "HgN/A
6:00 PM41 °FPassing clouds.10 mph61%29.65 "HgN/A
5:30 PM41 °FScattered showers. Partly sunny.14 mph61%29.65 "HgN/A
5:00 PM43 °FPartly sunny.12 mph61%29.62 "HgN/A
4:30 PM43 °FPartly sunny.12 mph61%29.62 "HgN/A
4:00 PM43 °FScattered showers. Broken clouds.13 mph61%29.62 "HgN/A
3:30 PM43 °FPartly sunny.14 mph66%29.62 "HgN/A
3:00 PM43 °FPartly sunny.10 mph66%29.62 "HgN/A
2:30 PM43 °FScattered showers. Partly sunny.13 mph61%29.62 "HgN/A
2:00 PM43 °FScattered showers. Broken clouds.13 mph61%29.59 "HgN/A
1:30 PM43 °FBroken clouds.16 mph66%29.59 "HgN/A
1:00 PM43 °FBroken clouds.14 mph66%29.59 "HgN/A
12:30 PM41 °FBroken clouds.16 mph66%29.62 "HgN/A
12:00 PM41 °FBroken clouds.15 mph70%29.62 "HgN/A
11:30 AM39 °FLight rain. Partly sunny.14 mph75%29.62 "HgN/A
11:00 AM39 °FPartly sunny.13 mph75%29.62 "HgN/A
10:30 AM39 °FPartly sunny.13 mph70%29.62 "HgN/A
10:00 AM39 °FBroken clouds.13 mph70%29.59 "HgN/A
Weather by CustomWeather, © 2016

See weather overviewHow to use our weather pages